| time (UTC) | temp C | wind direction | speed KPH | gust KPH | rain 1hr cm | rain 24hr cm | rain mn cm | humidity % | barometer mb |
| 20260507140453 | 28 | 68 | 11.3 | 22.5 | 0.00 | 0.00 | 0.00 | 81 | 1013.5 |
| 20260507135953 | 28 | 68 | 12.9 | 16.1 | 0.00 | 0.00 | 0.00 | 80 | 1013.9 |
| 20260507135453 | 28 | 45 | 14.5 | 17.7 | 0.00 | 0.00 | 0.00 | 81 | 1013.9 |
| 20260507134954 | 28 | 45 | 14.5 | 19.3 | 0.00 | 0.00 | 0.00 | 81 | 1013.5 |
| 20260507134453 | 28 | 68 | 12.9 | 16.1 | 0.00 | 0.00 | 0.00 | 82 | 1013.9 |
| 20260507133955 | 28 | 90 | 11.3 | 12.9 | 0.00 | 0.00 | 0.00 | 82 | 1013.9 |
| 20260507133453 | 28 | 90 | 9.7 | 11.3 | 0.00 | 0.00 | 0.00 | 82 | 1013.5 |
| 20260507132953 | 28 | 45 | 4.8 | 11.3 | 0.00 | 0.00 | 0.00 | 82 | 1013.5 |
| 20260507132453 | 28 | 68 | 11.3 | 14.5 | 0.00 | 0.00 | 0.00 | 83 | 1013.5 |
| 20260507131953 | 28 | 90 | 9.7 | 12.9 | 0.00 | 0.00 | 0.00 | 82 | 1013.2 |
| 20260507131453 | 28 | 45 | 11.3 | 16.1 | 0.00 | 0.00 | 0.00 | 83 | 1013.2 |
| 20260507130954 | 28 | 68 | 4.8 | 6.4 | 0.00 | 0.00 | 0.00 | 83 | 1013.2 |
| 20260507130454 | 27 | 68 | 8.0 | 8.0 | 0.00 | 0.00 | 0.00 | 83 | 1013.2 |
| 20260507125953 | 28 | 90 | 8.0 | 12.9 | 0.00 | 0.00 | 0.00 | 84 | 1013.2 |
| 20260507125454 | 27 | 90 | 9.7 | 11.3 | 0.00 | 0.00 | 0.00 | 84 | 1013.2 |
| 20260507124953 | 27 | 90 | 3.2 | 3.2 | 0.00 | 0.00 | 0.00 | 84 | 1013.2 |
| 20260507124454 | 27 | 90 | 6.4 | 9.7 | 0.00 | 0.00 | 0.00 | 84 | 1013.2 |
| 20260507123954 | 27 | 68 | 4.8 | 6.4 | 0.00 | 0.00 | 0.00 | 87 | 1013.2 |
| 20260507123454 | 27 | 90 | 3.2 | 3.2 | 0.00 | 0.00 | 0.00 | 87 | 1012.9 |
| 20260507122955 | 27 | 68 | 3.2 | 3.2 | 0.00 | 0.00 | 0.00 | 89 | 1012.9 |
| 20260507122453 | 27 | 0 | 1.6 | 3.2 | 0.00 | 0.00 | 0.00 | 89 | 1012.9 |
| 20260507121953 | 27 | 90 | 4.8 | 6.4 | 0.00 | 0.00 | 0.00 | 88 | 1012.9 |
| 20260507121455 | 27 | 90 | 6.4 | 11.3 | 0.00 | 0.00 | 0.00 | 88 | 1012.9 |
| 20260507120955 | 27 | 45 | 3.2 | 3.2 | 0.00 | 0.00 | 0.00 | 87 | 1012.9 |
| 20260507120453 | 27 | 90 | 3.2 | 3.2 | 0.00 | 0.00 | 0.00 | 86 | 1012.9 |
| 20260507115954 | 27 | 90 | 4.8 | 4.8 | 0.00 | 0.00 | 0.00 | 86 | 1012.9 |
| 20260507115453 | 27 | 90 | 1.6 | 3.2 | 0.00 | 0.00 | 0.00 | 85 | 1012.9 |
| 20260507114953 | 27 | 45 | 6.4 | 11.3 | 0.00 | 0.00 | 0.00 | 85 | 1012.9 |
| 20260507114453 | 27 | 113 | 4.8 | 6.4 | 0.00 | 0.00 | 0.00 | 85 | 1012.9 |
| 20260507113953 | 27 | 68 | 4.8 | 6.4 | 0.00 | 0.00 | 0.00 | 85 | 1012.9 |
| 20260507113453 | 27 | 90 | 4.8 | 6.4 | 0.00 | 0.00 | 0.00 | 86 | 1012.5 |
| 20260507112953 | 27 | 68 | 3.2 | 3.2 | 0.00 | 0.00 | 0.00 | 85 | 1012.5 |
| 20260507112453 | 27 | 90 | 4.8 | 4.8 | 0.00 | 0.00 | 0.00 | 83 | 1012.5 |
| 20260507111953 | 27 | 90 | 4.8 | 6.4 | 0.00 | 0.00 | 0.00 | 83 | 1012.5 |
| 20260507111453 | 27 | 113 | 3.2 | 3.2 | 0.00 | 0.00 | 0.00 | 82 | 1012.5 |
| 20260507110953 | 27 | 90 | 6.4 | 9.7 | 0.00 | 0.00 | 0.00 | 82 | 1012.5 |
| 20260507110454 | 28 | 113 | 4.8 | 4.8 | 0.00 | 0.00 | 0.00 | 82 | 1012.5 |
| 20260507105953 | 27 | 45 | 6.4 | 11.3 | 0.00 | 0.00 | 0.00 | 83 | 1012.5 |
| 20260507105454 | 28 | 68 | 6.4 | 8.0 | 0.00 | 0.00 | 0.00 | 83 | 1012.2 |
| 20260507104953 | 28 | 90 | 8.0 | 12.9 | 0.00 | 0.00 | 0.00 | 82 | 1012.2 |
| 20260507104453 | 28 | 68 | 8.0 | 11.3 | 0.00 | 0.00 | 0.00 | 82 | 1012.5 |
| 20260507103954 | 28 | 68 | 8.0 | 12.9 | 0.00 | 0.00 | 0.00 | 83 | 1012.2 |
| 20260507103454 | 28 | 90 | 8.0 | 11.3 | 0.00 | 0.00 | 0.00 | 82 | 1012.2 |
| 20260507102954 | 28 | 68 | 6.4 | 8.0 | 0.00 | 0.00 | 0.00 | 82 | 1011.9 |
| 20260507102454 | 28 | 113 | 3.2 | 3.2 | 0.00 | 0.00 | 0.00 | 82 | 1012.2 |
| 20260507101953 | 28 | 68 | 6.4 | 8.0 | 0.00 | 0.00 | 0.00 | 82 | 1011.9 |
| 20260507101453 | 28 | 90 | 4.8 | 8.0 | 0.00 | 0.00 | 0.00 | 84 | 1012.2 |
| 20260507100953 | 28 | 90 | 3.2 | 4.8 | 0.00 | 0.00 | 0.00 | 83 | 1012.2 |
| 20260507100453 | 27 | 135 | 9.7 | 11.3 | 0.00 | 0.00 | 0.00 | 85 | 1012.2 |
| 20260507095953 | 27 | 68 | 3.2 | 3.2 | 0.00 | 0.00 | 0.00 | 88 | 1012.2 |
| 20260507095453 | 27 | 113 | 1.6 | 3.2 | 0.00 | 0.00 | 0.00 | 87 | 1011.9 |
| 20260507094954 | 27 | 68 | 11.3 | 12.9 | 0.00 | 0.00 | 0.00 | 87 | 1011.9 |
| 20260507094453 | 28 | 90 | 8.0 | 9.7 | 0.00 | 0.00 | 0.00 | 86 | 1011.9 |
| 20260507093953 | 28 | 68 | 3.2 | 4.8 | 0.00 | 0.00 | 0.00 | 85 | 1011.9 |
| 20260507093454 | 28 | 90 | 6.4 | 8.0 | 0.00 | 0.00 | 0.00 | 85 | 1011.9 |
| 20260507092953 | 28 | 45 | 16.1 | 22.5 | 0.00 | 0.00 | 0.00 | 85 | 1011.5 |
| 20260507092453 | 28 | 68 | 11.3 | 12.9 | 0.00 | 0.00 | 0.00 | 85 | 1011.5 |
| 20260507091953 | 28 | 68 | 14.5 | 19.3 | 0.00 | 0.00 | 0.00 | 85 | 1011.5 |
| 20260507091453 | 28 | 90 | 11.3 | 16.1 | 0.00 | 0.00 | 0.00 | 85 | 1011.2 |
| 20260507090953 | 28 | 90 | 19.3 | 25.7 | 0.00 | 0.00 | 0.00 | 84 | 1011.5 |
| 20260507090454 | 28 | 45 | 14.5 | 20.9 | 0.00 | 0.00 | 0.00 | 83 | 1011.5 |
| 20260507085953 | 28 | 68 | 17.7 | 24.1 | 0.00 | 0.00 | 0.00 | 83 | 1011.5 |
| 20260507085455 | 28 | 90 | 9.7 | 11.3 | 0.00 | 0.00 | 0.00 | 83 | 1011.2 |
| 20260507084953 | 28 | 90 | 9.7 | 12.9 | 0.00 | 0.00 | 0.00 | 81 | 1011.2 |
| 20260507084453 | 29 | 68 | 6.4 | 9.7 | 0.00 | 0.00 | 0.00 | 81 | 1010.8 |
| 20260507083551 | 29 | 90 | 16.1 | 22.5 | 0.00 | 0.00 | 0.00 | 79 | 1010.8 |
| 20260507082953 | 29 | 90 | 12.9 | 17.7 | 0.00 | 0.00 | 0.00 | 80 | 1010.8 |
| 20260507082453 | 29 | 90 | 9.7 | 11.3 | 0.00 | 0.00 | 0.00 | 82 | 1011.2 |
| 20260507081953 | 30 | 90 | 14.5 | 20.9 | 0.00 | 0.00 | 0.00 | 80 | 1010.8 |
| 20260507081457 | 30 | 68 | 12.9 | 22.5 | 0.00 | 0.00 | 0.00 | 81 | 1011.2 |
| 20260507080953 | 30 | 23 | 17.7 | 20.9 | 0.00 | 0.00 | 0.00 | 80 | 1011.2 |
| 20260507080453 | 30 | 45 | 16.1 | 20.9 | 0.00 | 0.00 | 0.00 | 83 | 1011.2 |
| 20260507075953 | 30 | 90 | 16.1 | 22.5 | 0.00 | 0.00 | 0.00 | 82 | 1011.2 |
| 20260507075453 | 30 | 113 | 16.1 | 24.1 | 0.00 | 0.00 | 0.00 | 82 | 1011.2 |
| 20260507074953 | 30 | 90 | 11.3 | 14.5 | 0.00 | 0.00 | 0.00 | 82 | 1011.2 |
| 20260507074453 | 31 | 90 | 14.5 | 17.7 | 0.00 | 0.00 | 0.00 | 80 | 1011.2 |
| 20260507073955 | 30 | 68 | 14.5 | 17.7 | 0.00 | 0.00 | 0.00 | 80 | 1011.2 |
| 20260507073453 | 31 | 113 | 14.5 | 17.7 | 0.00 | 0.00 | 0.00 | 77 | 1011.2 |
| 20260507072953 | 31 | 68 | 14.5 | 20.9 | 0.00 | 0.00 | 0.00 | 77 | 1011.2 |
| 20260507072454 | 31 | 113 | 17.7 | 22.5 | 0.00 | 0.00 | 0.00 | 76 | 1011.2 |
| 20260507071954 | 31 | 90 | 9.7 | 14.5 | 0.00 | 0.00 | 0.00 | 76 | 1011.2 |
| 20260507071453 | 31 | 90 | 20.9 | 25.7 | 0.00 | 0.00 | 0.00 | 73 | 1011.5 |
| 20260507070954 | 32 | 45 | 16.1 | 20.9 | 0.00 | 0.00 | 0.00 | 72 | 1011.5 |
| 20260507070455 | 31 | 68 | 16.1 | 25.7 | 0.00 | 0.00 | 0.00 | 74 | 1011.2 |
| 20260507065953 | 32 | 68 | 9.7 | 11.3 | 0.00 | 0.00 | 0.00 | 75 | 1011.2 |
| 20260507065454 | 32 | 68 | 19.3 | 22.5 | 0.00 | 0.00 | 0.00 | 73 | 1011.2 |
| 20260507064953 | 31 | 90 | 19.3 | 24.1 | 0.00 | 0.00 | 0.00 | 74 | 1011.2 |
| 20260507064454 | 32 | 68 | 19.3 | 24.1 | 0.00 | 0.00 | 0.00 | 71 | 1011.2 |
| 20260507063953 | 31 | 68 | 20.9 | 25.7 | 0.00 | 0.00 | 0.00 | 74 | 1010.8 |
| 20260507063453 | 31 | 113 | 14.5 | 16.1 | 0.00 | 0.00 | 0.00 | 74 | 1011.2 |
| 20260507062954 | 31 | 68 | 19.3 | 24.1 | 0.00 | 0.00 | 0.00 | 73 | 1011.2 |
| 20260507062458 | 32 | 68 | 12.9 | 16.1 | 0.00 | 0.00 | 0.00 | 72 | 1011.5 |
| 20260507061954 | 31 | 90 | 11.3 | 12.9 | 0.00 | 0.00 | 0.00 | 74 | 1011.2 |
| 20260507061453 | 31 | 45 | 14.5 | 20.9 | 0.00 | 0.00 | 0.00 | 75 | 1011.9 |
| 20260507060953 | 31 | 68 | 17.7 | 22.5 | 0.00 | 0.00 | 0.00 | 72 | 1011.9 |
| 20260507060453 | 31 | 90 | 19.3 | 27.4 | 0.00 | 0.00 | 0.00 | 74 | 1011.5 |
| 20260507055954 | 32 | 68 | 9.7 | 11.3 | 0.00 | 0.00 | 0.00 | 74 | 1011.5 |
| 20260507055453 | 32 | 23 | 14.5 | 20.9 | 0.00 | 0.00 | 0.00 | 71 | 1011.5 |
| 20260507054953 | 31 | 68 | 16.1 | 25.7 | 0.00 | 0.00 | 0.00 | 73 | 1011.5 |
| 20260507054453 | 31 | 45 | 14.5 | 16.1 | 0.00 | 0.00 | 0.00 | 73 | 1011.9 |
| 20260507053954 | 32 | 45 | 11.3 | 16.1 | 0.00 | 0.00 | 0.00 | 72 | 1011.9 |
| 20260507053453 | 31 | 45 | 14.5 | 17.7 | 0.00 | 0.00 | 0.00 | 73 | 1011.9 |
| 20260507052954 | 32 | 45 | 8.0 | 14.5 | 0.00 | 0.00 | 0.00 | 72 | 1011.9 |
| 20260507052453 | 31 | 23 | 9.7 | 12.9 | 0.00 | 0.00 | 0.00 | 73 | 1012.2 |
| 20260507051954 | 31 | 45 | 11.3 | 16.1 | 0.00 | 0.00 | 0.00 | 74 | 1012.2 |
| 20260507051454 | 31 | 90 | 11.3 | 17.7 | 0.00 | 0.00 | 0.00 | 74 | 1012.2 |
| 20260507050953 | 31 | 68 | 12.9 | 16.1 | 0.00 | 0.00 | 0.00 | 76 | 1012.5 |
| 20260507050457 | 31 | 68 | 9.7 | 11.3 | 0.00 | 0.00 | 0.00 | 74 | 1012.5 |
| 20260507045953 | 31 | 90 | 11.3 | 16.1 | 0.00 | 0.00 | 0.00 | 76 | 1012.9 |
| 20260507045453 | 30 | 45 | 6.4 | 8.0 | 0.00 | 0.00 | 0.00 | 77 | 1012.9 |
| 20260507044954 | 31 | 45 | 9.7 | 12.9 | 0.00 | 0.00 | 0.00 | 75 | 1012.9 |
| 20260507044453 | 31 | 45 | 14.5 | 17.7 | 0.00 | 0.00 | 0.00 | 76 | 1012.9 |
| 20260507043953 | 33 | 68 | 11.3 | 17.7 | 0.00 | 0.00 | 0.00 | 70 | 1012.9 |
| 20260507043453 | 32 | 68 | 17.7 | 20.9 | 0.00 | 0.00 | 0.00 | 72 | 1012.9 |
| 20260507042954 | 32 | 45 | 20.9 | 24.1 | 0.00 | 0.00 | 0.00 | 73 | 1012.9 |
| 20260507042453 | 32 | 68 | 19.3 | 22.5 | 0.00 | 0.00 | 0.00 | 71 | 1012.9 |
| 20260507041953 | 32 | 68 | 8.0 | 12.9 | 0.00 | 0.00 | 0.00 | 72 | 1012.9 |
| 20260507041453 | 33 | 23 | 8.0 | 8.0 | 0.00 | 0.00 | 0.00 | 71 | 1012.5 |
| 20260507040953 | 32 | 68 | 12.9 | 19.3 | 0.00 | 0.00 | 0.00 | 73 | 1012.9 |
| 20260507040454 | 31 | 68 | 11.3 | 16.1 | 0.00 | 0.00 | 0.00 | 75 | 1012.9 |
| 20260507035953 | 32 | 68 | 11.3 | 16.1 | 0.00 | 0.00 | 0.00 | 74 | 1012.9 |
| 20260507035454 | 31 | 68 | 14.5 | 20.9 | 0.00 | 0.00 | 0.00 | 77 | 1013.2 |
| 20260507034953 | 32 | 68 | 14.5 | 20.9 | 0.00 | 0.00 | 0.00 | 74 | 1013.2 |
| 20260507034454 | 32 | 90 | 11.3 | 12.9 | 0.00 | 0.00 | 0.00 | 75 | 1013.2 |
| 20260507033953 | 32 | 90 | 8.0 | 12.9 | 0.00 | 0.00 | 0.00 | 73 | 1013.2 |
| 20260507033454 | 33 | 90 | 6.4 | 11.3 | 0.00 | 0.00 | 0.00 | 68 | 1013.2 |
| 20260507032954 | 33 | 68 | 6.4 | 12.9 | 0.00 | 0.00 | 0.00 | 70 | 1013.2 |
| 20260507032454 | 33 | 45 | 11.3 | 16.1 | 0.00 | 0.00 | 0.00 | 69 | 1013.2 |
| 20260507031953 | 32 | 90 | 8.0 | 8.0 | 0.00 | 0.00 | 0.00 | 71 | 1013.2 |
| 20260507031453 | 33 | 68 | 6.4 | 8.0 | 0.00 | 0.00 | 0.00 | 70 | 1013.2 |
| 20260507030953 | 33 | 90 | 8.0 | 8.0 | 0.00 | 0.00 | 0.00 | 70 | 1013.5 |
| 20260507030454 | 32 | 68 | 12.9 | 20.9 | 0.00 | 0.00 | 0.00 | 71 | 1013.2 |
| 20260507025954 | 33 | 90 | 3.2 | 8.0 | 0.00 | 0.00 | 0.00 | 69 | 1013.5 |
| 20260507025453 | 33 | 113 | 3.2 | 3.2 | 0.00 | 0.00 | 0.00 | 68 | 1013.5 |
| 20260507024957 | 33 | 135 | 3.2 | 6.4 | 0.00 | 0.00 | 0.00 | 69 | 1013.2 |
| 20260507024453 | 33 | 45 | 4.8 | 6.4 | 0.00 | 0.00 | 0.00 | 70 | 1013.5 |
| 20260507023953 | 32 | 90 | 3.2 | 3.2 | 0.00 | 0.00 | 0.00 | 72 | 1013.5 |
| 20260507023454 | 33 | 68 | 3.2 | 4.8 | 0.00 | 0.00 | 0.00 | 73 | 1013.2 |
| 20260507022953 | 32 | 68 | 8.0 | 11.3 | 0.00 | 0.00 | 0.00 | 74 | 1013.2 |
| 20260507022454 | 31 | 113 | 11.3 | 16.1 | 0.00 | 0.00 | 0.00 | 73 | 1013.2 |
| 20260507021953 | 31 | 68 | 14.5 | 20.9 | 0.00 | 0.00 | 0.00 | 73 | 1013.2 |
| 20260507021453 | 32 | 68 | 9.7 | 12.9 | 0.00 | 0.00 | 0.00 | 73 | 1013.2 |
| 20260507020954 | 32 | 113 | 4.8 | 6.4 | 0.00 | 0.00 | 0.00 | 70 | 1013.5 |
| 20260507020454 | 32 | 68 | 6.4 | 8.0 | 0.00 | 0.00 | 0.00 | 71 | 1013.5 |
| 20260507015953 | 32 | 68 | 11.3 | 12.9 | 0.00 | 0.00 | 0.00 | 72 | 1013.5 |
| 20260507015453 | 32 | 68 | 11.3 | 12.9 | 0.00 | 0.00 | 0.00 | 73 | 1013.5 |
| 20260507014953 | 31 | 45 | 14.5 | 19.3 | 0.00 | 0.00 | 0.00 | 74 | 1013.5 |
| 20260507014453 | 32 | 68 | 4.8 | 8.0 | 0.00 | 0.00 | 0.00 | 72 | 1013.9 |
| 20260507013953 | 32 | 68 | 11.3 | 12.9 | 0.00 | 0.00 | 0.00 | 73 | 1013.5 |
| 20260507013453 | 32 | 45 | 8.0 | 12.9 | 0.00 | 0.00 | 0.00 | 73 | 1013.5 |
| 20260507012954 | 31 | 68 | 4.8 | 8.0 | 0.00 | 0.00 | 0.00 | 74 | 1013.5 |
| 20260507012453 | 31 | 68 | 9.7 | 16.1 | 0.00 | 0.00 | 0.00 | 73 | 1013.5 |
| 20260507011953 | 31 | 90 | 6.4 | 8.0 | 0.00 | 0.00 | 0.00 | 74 | 1013.9 |
| 20260507011454 | 31 | 113 | 11.3 | 16.1 | 0.00 | 0.00 | 0.00 | 74 | 1014.2 |
| 20260507010953 | 32 | 68 | 11.3 | 14.5 | 0.00 | 0.00 | 0.00 | 72 | 1013.9 |
| 20260507010455 | 31 | 68 | 11.3 | 12.9 | 0.00 | 0.00 | 0.00 | 75 | 1013.9 |
| 20260507005953 | 31 | 45 | 9.7 | 12.9 | 0.00 | 0.00 | 0.00 | 74 | 1013.9 |
| 20260507005453 | 31 | 90 | 8.0 | 14.5 | 0.00 | 0.00 | 0.00 | 75 | 1014.2 |
| 20260507004954 | 31 | 90 | 4.8 | 6.4 | 0.00 | 0.00 | 0.00 | 75 | 1014.2 |
| 20260507004454 | 31 | 45 | 9.7 | 11.3 | 0.00 | 0.00 | 0.00 | 74 | 1013.9 |
| 20260507003954 | 30 | 68 | 4.8 | 8.0 | 0.00 | 0.00 | 0.00 | 74 | 1013.9 |
| 20260507003453 | 31 | 90 | 4.8 | 8.0 | 0.00 | 0.00 | 0.00 | 73 | 1013.9 |
| 20260507002953 | 31 | 68 | 4.8 | 6.4 | 0.00 | 0.00 | 0.00 | 72 | 1013.9 |
| 20260507002453 | 32 | 90 | 8.0 | 9.7 | 0.00 | 0.00 | 0.00 | 69 | 1013.5 |
| 20260507001953 | 32 | 45 | 9.7 | 12.9 | 0.00 | 0.00 | 0.00 | 70 | 1013.9 |
| 20260507001009 | 32 | 113 | 3.2 | 4.8 | 0.00 | 0.00 | 0.00 | 71 | 1013.5 |
| 20260507000454 | 32 | 90 | 4.8 | 4.8 | 0.00 | 0.00 | 0.00 | 71 | 1013.5 |
| 20260506235953 | 31 | 45 | 3.2 | 3.2 | 0.00 | 0.00 | 0.00 | 72 | 1013.5 |
| 20260506235454 | 32 | 68 | 4.8 | 6.4 | 0.00 | 0.00 | 0.00 | 72 | 1013.5 |
| 20260506234953 | 31 | 180 | 4.8 | 4.8 | 0.00 | 0.00 | 0.00 | 73 | 1013.5 |
| 20260506234455 | 31 | 68 | 3.2 | 3.2 | 0.00 | 0.00 | 0.00 | 73 | 1013.9 |
| 20260506233953 | 31 | 68 | 4.8 | 6.4 | 0.00 | 0.00 | 0.00 | 73 | 1013.5 |
| 20260506233453 | 31 | 68 | 3.2 | 3.2 | 0.00 | 0.00 | 0.00 | 73 | 1013.9 |
| 20260506232953 | 31 | 45 | 4.8 | 6.4 | 0.00 | 0.00 | 0.00 | 70 | 1013.5 |
| 20260506232454 | 31 | 68 | 1.6 | 3.2 | 0.00 | 0.00 | 0.00 | 73 | 1013.5 |
| 20260506231954 | 31 | 135 | 0.0 | 1.6 | 0.00 | 0.00 | 0.00 | 76 | 1013.5 |
| 20260506231453 | 30 | 293 | 3.2 | 3.2 | 0.00 | 0.00 | 0.00 | 76 | 1013.5 |
| 20260506230953 | 31 | 135 | 0.0 | 0.0 | 0.00 | 0.00 | 0.00 | 78 | 1013.5 |
| 20260506230453 | 31 | 68 | 0.0 | 1.6 | 0.00 | 0.00 | 0.00 | 76 | 1013.5 |
| 20260506225953 | 30 | 90 | 0.0 | 0.0 | 0.00 | 0.00 | 0.00 | 79 | 1013.5 |
| 20260506225453 | 30 | 90 | 1.6 | 3.2 | 0.00 | 0.00 | 0.00 | 78 | 1013.2 |
| 20260506224954 | 29 | 45 | 0.0 | 0.0 | 0.00 | 0.00 | 0.00 | 82 | 1013.2 |
| 20260506224453 | 28 | 293 | 1.6 | 3.2 | 0.00 | 0.00 | 0.00 | 81 | 1013.2 |
| 20260506223953 | 28 | 248 | 1.6 | 1.6 | 0.00 | 0.00 | 0.00 | 82 | 1013.2 |
| 20260506223453 | 27 | 248 | 0.0 | 0.0 | 0.00 | 0.00 | 0.00 | 84 | 1012.9 |
| 20260506222954 | 27 | 90 | 0.0 | 0.0 | 0.00 | 0.00 | 0.00 | 86 | 1013.2 |
| 20260506222453 | 26 | 225 | 1.6 | 3.2 | 0.00 | 0.00 | 0.00 | 87 | 1013.2 |
| 20260506221954 | 26 | 293 | 1.6 | 3.2 | 0.00 | 0.00 | 0.00 | 87 | 1012.9 |
| 20260506221453 | 26 | 68 | 1.6 | 3.2 | 0.00 | 0.00 | 0.00 | 90 | 1012.9 |
| 20260506220954 | 26 | 293 | 0.0 | 0.0 | 0.00 | 0.00 | 0.00 | 91 | 1013.2 |
| 20260506220453 | 25 | 90 | 0.0 | 0.0 | 0.00 | 0.00 | 0.00 | 93 | 1012.9 |
| 20260506215953 | 25 | 90 | 0.0 | 0.0 | 0.00 | 0.00 | 0.00 | 94 | 1012.9 |
| 20260506215453 | 25 | 68 | 0.0 | 1.6 | 0.00 | 0.00 | 0.00 | 94 | 1012.9 |
| 20260506214953 | 25 | 270 | 0.0 | 1.6 | 0.00 | 0.00 | 0.00 | 94 | 1012.9 |
| 20260506214454 | 25 | 90 | 0.0 | 0.0 | 0.00 | 0.00 | 0.00 | 94 | 1012.5 |
| 20260506213954 | 25 | 68 | 0.0 | 0.0 | 0.00 | 0.00 | 0.00 | 95 | 1012.2 |
| 20260506213453 | 25 | 68 | 3.2 | 3.2 | 0.00 | 0.00 | 0.00 | 94 | 1012.9 |
| 20260506212954 | 25 | 45 | 0.0 | 0.0 | 0.00 | 0.00 | 0.00 | 94 | 1012.5 |
| 20260506212453 | 25 | 45 | 1.6 | 3.2 | 0.00 | 0.00 | 0.00 | 94 | 1012.5 |
| 20260506211954 | 25 | 23 | 0.0 | 0.0 | 0.00 | 0.00 | 0.00 | 94 | 1012.5 |
| 20260506211454 | 25 | 0 | 0.0 | 1.6 | 0.00 | 0.00 | 0.00 | 94 | 1012.5 |
| 20260506210954 | 25 | 0 | 0.0 | 1.6 | 0.00 | 0.00 | 0.00 | 93 | 1012.5 |
| 20260506210453 | 25 | 248 | 0.0 | 0.0 | 0.00 | 0.00 | 0.00 | 93 | 1012.5 |
| 20260506205953 | 25 | 135 | 0.0 | 0.0 | 0.00 | 0.00 | 0.00 | 92 | 1012.5 |
| 20260506205453 | 25 | 293 | 0.0 | 0.0 | 0.00 | 0.00 | 0.00 | 92 | 1012.5 |
| 20260506204953 | 25 | 113 | 0.0 | 0.0 | 0.00 | 0.00 | 0.00 | 92 | 1012.5 |
| 20260506204453 | 25 | 23 | 0.0 | 0.0 | 0.00 | 0.00 | 0.00 | 92 | 1012.5 |
| 20260506203953 | 25 | 248 | 0.0 | 0.0 | 0.00 | 0.00 | 0.00 | 92 | 1012.5 |
| 20260506203454 | 25 | 248 | 0.0 | 0.0 | 0.00 | 0.00 | 0.00 | 91 | 1012.2 |
| 20260506202954 | 25 | 0 | 0.0 | 0.0 | 0.00 | 0.00 | 0.00 | 91 | 1012.5 |
| 20260506202453 | 25 | 180 | 0.0 | 0.0 | 0.00 | 0.00 | 0.00 | 91 | 1012.2 |
| 20260506201955 | 25 | 90 | 0.0 | 1.6 | 0.00 | 0.00 | 0.00 | 91 | 1012.5 |
| 20260506201453 | 25 | 68 | 0.0 | 1.6 | 0.00 | 0.00 | 0.00 | 91 | 1012.5 |
| 20260506200954 | 25 | 113 | 0.0 | 0.0 | 0.00 | 0.00 | 0.00 | 91 | 1012.5 |
| 20260506200453 | 25 | 0 | 0.0 | 0.0 | 0.00 | 0.00 | 0.00 | 91 | 1012.5 |
| 20260506195954 | 25 | 68 | 1.6 | 3.2 | 0.00 | 0.00 | 0.00 | 91 | 1012.2 |
| 20260506195453 | 25 | 248 | 0.0 | 1.6 | 0.00 | 0.00 | 0.00 | 92 | 1012.5 |
| 20260506194953 | 25 | 338 | 0.0 | 0.0 | 0.00 | 0.00 | 0.00 | 92 | 1011.9 |
| 20260506194453 | 25 | 270 | 0.0 | 1.6 | 0.00 | 0.00 | 0.00 | 92 | 1012.2 |
| 20260506193953 | 25 | 68 | 0.0 | 0.0 | 0.00 | 0.00 | 0.00 | 92 | 1012.2 |
| 20260506193454 | 25 | 270 | 0.0 | 0.0 | 0.00 | 0.00 | 0.00 | 93 | 1012.2 |
| 20260506192954 | 25 | 135 | 0.0 | 0.0 | 0.00 | 0.00 | 0.00 | 93 | 1012.2 |
| 20260506192455 | 25 | 158 | 0.0 | 0.0 | 0.00 | 0.00 | 0.00 | 93 | 1011.9 |
| 20260506191953 | 25 | 0 | 0.0 | 0.0 | 0.00 | 0.00 | 0.00 | 93 | 1011.9 |
| 20260506191454 | 25 | 0 | 0.0 | 0.0 | 0.00 | 0.00 | 0.00 | 92 | 1012.2 |
| 20260506190953 | 25 | 248 | 0.0 | 0.0 | 0.00 | 0.00 | 0.00 | 92 | 1011.9 |
| 20260506190454 | 25 | 23 | 0.0 | 0.0 | 0.00 | 0.00 | 0.00 | 92 | 1011.9 |
| 20260506185953 | 25 | 23 | 0.0 | 0.0 | 0.00 | 0.00 | 0.00 | 91 | 1012.2 |
| 20260506185453 | 25 | 180 | 0.0 | 0.0 | 0.00 | 0.00 | 0.00 | 91 | 1012.2 |
| 20260506184953 | 25 | 23 | 0.0 | 0.0 | 0.00 | 0.00 | 0.00 | 91 | 1012.2 |
| 20260506184453 | 26 | 90 | 0.0 | 0.0 | 0.00 | 0.00 | 0.00 | 90 | 1012.2 |
| 20260506183954 | 26 | 23 | 0.0 | 0.0 | 0.00 | 0.00 | 0.00 | 90 | 1012.2 |
| 20260506183455 | 26 | 270 | 0.0 | 0.0 | 0.00 | 0.00 | 0.00 | 90 | 1011.9 |
| 20260506182953 | 26 | 270 | 3.2 | 3.2 | 0.00 | 0.00 | 0.00 | 90 | 1011.9 |
| 20260506182454 | 26 | 248 | 0.0 | 0.0 | 0.00 | 0.00 | 0.00 | 90 | 1012.2 |
| 20260506181953 | 26 | 113 | 0.0 | 0.0 | 0.00 | 0.00 | 0.00 | 91 | 1012.2 |
| 20260506181453 | 25 | 90 | 0.0 | 0.0 | 0.00 | 0.00 | 0.00 | 91 | 1012.5 |
| 20260506180953 | 26 | 45 | 0.0 | 0.0 | 0.00 | 0.00 | 0.00 | 90 | 1012.2 |
| 20260506180453 | 26 | 158 | 0.0 | 0.0 | 0.00 | 0.00 | 0.00 | 90 | 1012.2 |
| 20260506175956 | 26 | 23 | 0.0 | 0.0 | 0.00 | 0.00 | 0.00 | 90 | 1012.2 |
| 20260506175453 | 25 | 90 | 0.0 | 0.0 | 0.00 | 0.00 | 0.00 | 90 | 1012.2 |
| 20260506174955 | 25 | 90 | 0.0 | 0.0 | 0.00 | 0.00 | 0.00 | 90 | 1012.2 |
| 20260506174454 | 25 | 68 | 0.0 | 1.6 | 0.00 | 0.00 | 0.00 | 90 | 1012.5 |
| 20260506173953 | 25 | 23 | 0.0 | 0.0 | 0.00 | 0.00 | 0.00 | 90 | 1012.2 |
| 20260506173454 | 25 | 68 | 0.0 | 0.0 | 0.00 | 0.00 | 0.00 | 90 | 1012.5 |
| 20260506172954 | 25 | 113 | 0.0 | 0.0 | 0.00 | 0.00 | 0.00 | 90 | 1012.5 |
| 20260506172018 | 25 | 338 | 0.0 | 1.6 | 0.00 | 0.00 | 0.00 | 90 | 1012.5 |
| 20260506171453 | 25 | 90 | 0.0 | 0.0 | 0.00 | 0.00 | 0.00 | 90 | 1012.5 |
| 20260506170953 | 26 | 0 | 0.0 | 0.0 | 0.00 | 0.00 | 0.00 | 90 | 1012.5 |
| 20260506170454 | 26 | 90 | 0.0 | 0.0 | 0.00 | 0.00 | 0.00 | 89 | 1012.5 |
| 20260506165955 | 25 | 113 | 0.0 | 0.0 | 0.00 | 0.00 | 0.00 | 89 | 1012.9 |
| 20260506165454 | 26 | 90 | 0.0 | 0.0 | 0.00 | 0.00 | 0.00 | 90 | 1012.9 |
| 20260506164954 | 26 | 90 | 0.0 | 0.0 | 0.00 | 0.00 | 0.00 | 90 | 1012.5 |
| 20260506164453 | 25 | 338 | 6.4 | 8.0 | 0.00 | 0.00 | 0.00 | 90 | 1012.9 |
| 20260506163953 | 25 | 270 | 1.6 | 3.2 | 0.00 | 0.00 | 0.00 | 90 | 1012.9 |
| 20260506163453 | 25 | 338 | 1.6 | 3.2 | 0.00 | 0.00 | 0.00 | 91 | 1012.9 |
| 20260506162954 | 25 | 68 | 0.0 | 0.0 | 0.00 | 0.00 | 0.00 | 93 | 1012.9 |
| 20260506162453 | 25 | 45 | 0.0 | 1.6 | 0.00 | 0.00 | 0.00 | 92 | 1012.9 |
| 20260506161953 | 25 | 225 | 0.0 | 0.0 | 0.00 | 0.00 | 0.00 | 92 | 1013.2 |
| 20260506161453 | 25 | 68 | 0.0 | 0.0 | 0.00 | 0.00 | 0.00 | 92 | 1012.9 |
| 20260506160954 | 25 | 225 | 0.0 | 1.6 | 0.00 | 0.00 | 0.00 | 92 | 1012.9 |
| 20260506160453 | 25 | 293 | 0.0 | 0.0 | 0.00 | 0.00 | 0.00 | 92 | 1013.2 |
| 20260506155953 | 25 | 68 | 0.0 | 1.6 | 0.00 | 0.00 | 0.00 | 91 | 1013.2 |
| 20260506155454 | 25 | 68 | 0.0 | 1.6 | 0.00 | 0.00 | 0.00 | 91 | 1013.5 |
| 20260506154954 | 25 | 68 | 0.0 | 0.0 | 0.00 | 0.00 | 0.00 | 92 | 1013.5 |
| 20260506154455 | 25 | 90 | 0.0 | 0.0 | 0.00 | 0.00 | 0.00 | 92 | 1013.5 |
| 20260506153954 | 25 | 90 | 3.2 | 3.2 | 0.00 | 0.00 | 0.00 | 92 | 1013.5 |
| 20260506153453 | 25 | 90 | 0.0 | 0.0 | 0.00 | 0.00 | 0.00 | 92 | 1013.5 |
| 20260506152954 | 25 | 68 | 0.0 | 0.0 | 0.00 | 0.00 | 0.00 | 92 | 1013.5 |
| 20260506152454 | 25 | 68 | 1.6 | 3.2 | 0.00 | 0.00 | 0.00 | 92 | 1013.9 |
| 20260506151957 | 25 | 293 | 1.6 | 3.2 | 0.00 | 0.00 | 0.00 | 92 | 1013.5 |
| 20260506151454 | 25 | 90 | 0.0 | 0.0 | 0.00 | 0.00 | 0.00 | 92 | 1013.5 |
| 20260506150955 | 25 | 270 | 0.0 | 0.0 | 0.00 | 0.00 | 0.00 | 91 | 1013.9 |
| 20260506150454 | 25 | 315 | 0.0 | 0.0 | 0.00 | 0.00 | 0.00 | 91 | 1013.9 |
| 20260506145953 | 25 | 68 | 0.0 | 0.0 | 0.00 | 0.00 | 0.00 | 91 | 1013.9 |
| 20260506145454 | 25 | 68 | 0.0 | 0.0 | 0.00 | 0.00 | 0.00 | 91 | 1013.9 |
| 20260506144953 | 25 | 23 | 0.0 | 0.0 | 0.00 | 0.00 | 0.00 | 90 | 1013.9 |
| 20260506144454 | 25 | 45 | 0.0 | 0.0 | 0.00 | 0.00 | 0.00 | 90 | 1014.2 |
| 20260506143953 | 25 | 135 | 0.0 | 0.0 | 0.00 | 0.00 | 0.00 | 90 | 1014.6 |
| 20260506143455 | 26 | 158 | 0.0 | 1.6 | 0.00 | 0.00 | 0.00 | 89 | 1014.2 |
| 20260506142954 | 26 | 248 | 0.0 | 0.0 | 0.00 | 0.00 | 0.00 | 89 | 1014.2 |
| 20260506142453 | 26 | 68 | 0.0 | 1.6 | 0.00 | 0.00 | 0.00 | 89 | 1014.6 |
| 20260506141953 | 26 | 338 | 0.0 | 1.6 | 0.00 | 0.00 | 0.00 | 88 | 1014.6 |
| 20260506141454 | 25 | 248 | 0.0 | 1.6 | 0.00 | 0.00 | 0.00 | 88 | 1014.2 |
| 20260506140954 | 25 | 90 | 0.0 | 0.0 | 0.00 | 0.00 | 0.00 | 88 | 1014.2 |